User: anonymous   Login
Location: Observatorio Las Palmas
(29.0667°N, 110.9333°W)
Time: 11:58:15
(UTC-07:00)
Language:

Skynet4D Del rocket - Orbit

View from above orbital plane
View from above orbital plane
View from above satellite
View from above satellite

Ground track
Ground track

The orbit data is extracted from the following two-line orbital elements,

1 25135U 98002B   16177.64067595 +.00000118 +00000-0 +81342-5 0  9992
2 25135 026.8828 244.7410 0356597 054.3743 100.6438 13.62335464919553
Epoch (UTC): 25 June 2016 15:22:34
Eccentricity: 0.0356597
inclination: 26.8828°
perigee height: 763 km
apogee height: 1291 km
right ascension of ascending node: 244.7410°
argument of perigee: 54.3743°
revolutions per day: 13.62335464
mean anomaly at epoch: 100.6438°
orbit number at epoch: 91955

The dashed part of the orbit path shows where the satellite is in the earth's shadow,  

DLR